[[{"header":{"parameterUnit":"m.s-1","parameterCategory":1,"la1":30.2991,"la2":30.254,"lo1":-89.0895,"lo2":-89.0444,"dy":0.0017,"dx":0.0017,"nx":28,"ny":28,"refTime":"2024-04-03T03:00:00:Z","depth":0,"parameterNumber":2,"parameterNumberName":"U-component_of_WINDS"},"data":[0,0,0,0,0,0,0,0,0,0,0,0,0,0,0,0,0,0,0,0,0,0,0,0,0,0,0,0,0,0,0,0,0,0,0,0,0,0,0,0,0,0,0,0,0,0,0,0,0,0,0,0,0,0,0,0,0,0,6.8843,6.8845,0,6.8984,6.8985,6.8987,6.8929,6.8926,6.8923,6.8919,6.9064,6.907,6.9077,0,0,0,0,0,0,0,0,0,0,0,0,0,6.8525,6.8532,6.8843,6.8845,6.8846,6.8983,6.8985,6.8987,6.893,6.8926,6.8922,6.8918,6.9061,6.907,6.9078,0,0,0,0,0,0,0,0,0,0,0,0,0,6.8664,6.8534,6.8843,6.8834,6.8835,6.8983,6.8985,6.8988,6.8931,6.8926,6.8921,6.8916,6.9059,6.9069,6.9079,6.9244,0,0,6.9111,6.9115,0,0,0,0,0,0,0,0,6.8657,6.8676,6.8834,6.8835,6.8836,6.8934,6.8926,6.9074,6.8932,6.8894,6.8919,6.8913,6.9025,6.9037,6.9075,6.925,6.9257,6.9112,6.9118,6.9123,6.9126,0,0,0,0,0,0,0,6.8647,6.867,6.8898,6.8836,6.8838,6.8824,6.8838,6.8954,6.8986,6.8897,6.8893,6.8911,6.9024,6.9065,6.9078,6.9259,6.9112,6.9121,6.9127,6.9131,6.9577,6.9583,0,0,0,0,0,0,6.8637,6.8662,6.8894,6.8903,6.8732,6.8834,6.8849,6.8907,6.8984,6.8991,6.8915,6.8908,6.905,6.9066,6.9083,6.9281,6.9123,6.9132,6.9138,6.9572,6.9579,6.9585,0,0,0,0,0,0,6.8631,6.8658,6.8888,6.8782,6.881,6.8844,6.891,6.8913,6.8953,6.8998,6.9003,6.8951,6.9046,6.9068,6.9204,6.9285,6.9137,6.9147,6.9565,6.9574,6.9582,6.9678,0,0,0,0,0,0,6.8622,6.8656,6.8719,6.8783,6.8816,6.9008,6.8915,6.8919,6.8972,6.8963,6.9033,6.9039,6.9044,6.9189,6.9215,6.9296,6.9155,6.9558,6.9569,6.9579,6.9668,6.9688,6.9706,0,0,0,0,0,6.8611,6.874,6.8722,6.8751,6.8895,6.9012,6.9031,6.9033,6.8978,6.9042,6.907,6.9037,6.9272,6.9203,6.9232,6.9318,6.9553,6.9566,6.9578,6.9659,6.9684,6.9706,0,0,0,0,0,0,6.8684,6.8749,6.8729,6.8884,6.8943,6.9002,6.9082,6.906,6.9136,6.9125,6.9126,6.9142,6.9283,6.9314,6.9236,6.9482,6.9404,6.9423,6.9456,6.948,6.9499,6.9489,6.9163,0,0,0,0,0,6.8719,6.8809,6.886,6.8991,6.9022,6.9048,6.9099,6.9096,6.9157,6.9182,6.922,6.9281,6.9369,6.9426,6.9509,6.9672,6.9687,6.9746,6.9765,6.9781,6.9797,6.9885,6.9912,6.9626,6.9626,6.9626,0,0,6.879,6.8836,6.8893,6.9007,6.9053,6.9146,6.9069,6.9171,6.924,6.9197,6.9328,6.9359,6.9427,6.9578,6.9646,6.9608,6.9879,6.9797,6.9809,6.9816,6.9901,6.9928,6.9952,6.9634,6.9633,6.9632,0,0,6.8968,6.9012,6.9127,6.9174,6.9244,6.9261,6.9288,6.9352,6.937,6.9502,6.9472,6.9555,6.9705,6.9755,6.98,6.9999,6.9972,7.0026,7.0127,7.0214,7.0236,7.0256,7.0327,7.0353,7.0042,7.0043,7.0043,0,6.9048,6.9188,6.9188,6.9293,6.9345,6.9311,6.9427,6.9473,6.9567,6.9603,6.956,6.9749,6.9792,6.9954,7.0002,7.004,7.0072,7.0018,7.0233,7.0253,7.0272,7.0339,7.0366,7.0049,7.0048,7.0047,7.0047,0,6.9283,6.938,6.9464,6.9556,6.9617,6.9727,6.9745,6.9806,6.9799,6.982,6.9954,7.0006,7.0098,7.0137,7.013,7.0298,7.0273,7.0232,7.0153,7.0305,7.0369,7.0395,7.0058,7.0055,7.0054,7.0052,0,0,6.951,6.9602,6.9633,6.9674,6.9749,6.9825,6.9934,7.0025,7.0078,7.0144,7.0235,7.0364,7.0327,7.0378,7.0377,7.0453,7.0608,7.0403,7.0404,7.0439,7.0796,7.0826,7.0856,7.059,7.0595,7.0599,7.079,0,6.9694,6.9885,6.9889,7.0064,7.0154,7.0124,7.0219,7.0276,7.0298,7.0378,7.0404,7.0495,7.0439,7.047,7.0544,7.0573,7.0679,7.056,7.0675,7.0679,7.0658,7.089,7.0922,7.11,7.0815,7.0819,7.0823,0,6.9934,7.0008,7.0192,7.0255,7.0293,7.0378,7.0462,7.0539,7.0603,7.0615,7.0673,7.0661,7.0772,7.0691,7.0845,7.0764,7.0812,7.0834,7.0841,7.0851,7.076,7.0906,7.1156,7.1183,7.0862,7.0859,7.0856,0,7.0081,7.0227,7.0356,7.0392,7.0469,7.053,7.0565,7.0624,7.0679,7.0752,7.0788,7.0874,7.0921,7.0988,7.1,7.094,7.1155,7.1074,7.1167,7.1167,7.1213,7.121,7.1474,7.1245,7.1245,7.1244,7.1243,0,7.0286,7.0399,7.0423,7.0502,7.0629,7.0633,7.0759,7.0789,7.0842,7.0927,7.0906,7.0987,7.0997,7.108,7.109,7.1216,7.1238,7.125,7.1252,7.1252,7.1251,7.1283,7.1271,7.1251,7.125,7.1248,7.1247,0,7.0471,7.0492,7.063,7.0692,7.071,7.0801,7.0854,7.093,7.0951,7.1059,7.1084,7.1117,7.1214,7.1233,7.1347,7.1354,7.1504,7.1493,7.1483,7.1481,7.1572,7.1564,7.1867,7.1907,7.1652,7.1654,7.1656,0,7.06,7.0687,7.0758,7.0813,7.0851,7.0941,7.0997,7.1005,7.1064,7.1144,7.1211,7.1305,7.1381,7.1538,7.1572,7.166,7.165,7.1751,7.1663,7.1661,7.1652,7.1646,7.1655,7.1767,7.177,7.1772,7.1774,0,7.0827,7.0833,7.0914,7.1,7.1067,7.1134,7.1198,7.1245,7.1262,7.1329,7.1428,7.1487,7.1604,7.1699,7.1786,7.1822,7.1802,7.1801,7.1827,7.1828,7.1819,7.1825,7.1528,7.1794,7.1792,7.1791,7.179,7.1789,7.0988,7.1064,7.1126,7.1217,7.1266,7.1327,7.1402,7.1432,7.1515,7.161,7.161,7.1719,7.1781,7.1897,7.1939,7.2024,7.1992,7.203,7.2039,7.2048,7.2057,7.1806,7.204,7.2039,7.2039,7.2038,7.2038,0,7.1213,7.1252,7.1336,7.1426,7.1499,7.1473,7.1543,7.1605,7.17,7.176,7.1836,7.195,7.2041,7.2083,7.2174,7.2234,7.2227,7.2257,7.2253,7.2261,7.208,7.2048,7.2262,7.2262,7.2262,7.2262,7.2262,7.2262,7.1339,7.1466,7.148,7.1631,7.1669,7.1775,7.1817,7.1873,7.1921,7.2049,7.2125,7.2152,7.2205,7.2299,7.2382,7.2392,7.2427,7.2462,7.2468,7.2297,7.2274,7.2252,7.2223,7.2469,7.247,7.2642,7.2643,7.2645]},{"header":{"parameterUnit":"m.s-1","parameterCategory":1,"la1":30.2991,"la2":30.254,"lo1":-89.0895,"lo2":-89.0444,"dy":0.0017,"dx":0.0017,"nx":28,"ny":28,"refTime":"2024-04-03T03:00:00:Z","depth":0,"parameterNumber":3,"parameterNumberName":"V-component_of_WINDS"},"data":[0,0,0,0,0,0,0,0,0,0,0,0,0,0,0,0,0,0,0,0,0,0,0,0,0,0,0,0,0,0,0,0,0,0,0,0,0,0,0,0,0,0,0,0,0,0,0,0,0,0,0,0,0,0,0,0,0,0,-0.2562,-0.2563,0,-0.2583,-0.2583,-0.2584,-0.2639,-0.264,-0.2641,-0.2642,-0.266,-0.2659,-0.2659,0,0,0,0,0,0,0,0,0,0,0,0,0,-0.2568,-0.2567,-0.2562,-0.2563,-0.2563,-0.2583,-0.2583,-0.2584,-0.2638,-0.264,-0.2641,-0.2643,-0.266,-0.2659,-0.2659,0,0,0,0,0,0,0,0,0,0,0,0,0,-0.2574,-0.2567,-0.2562,-0.2593,-0.2596,-0.2583,-0.2583,-0.2584,-0.2638,-0.264,-0.2642,-0.2643,-0.266,-0.266,-0.2659,-0.2617,0,0,-0.2656,-0.2655,0,0,0,0,0,0,0,0,-0.2574,-0.2574,-0.2588,-0.2591,-0.2594,-0.261,-0.2592,-0.2595,-0.2638,-0.2622,-0.2642,-0.2644,-0.2642,-0.2642,-0.2642,-0.2618,-0.2619,-0.2656,-0.2655,-0.2655,-0.2654,0,0,0,0,0,0,0,-0.2573,-0.2574,-0.2571,-0.2588,-0.2592,-0.2605,-0.2607,-0.2593,-0.2621,-0.2623,-0.2628,-0.2629,-0.2644,-0.2643,-0.2643,-0.2619,-0.2656,-0.2655,-0.2654,-0.2654,-0.2561,-0.2559,0,0,0,0,0,0,-0.2569,-0.2573,-0.257,-0.2571,-0.2588,-0.2603,-0.2606,-0.2603,-0.2622,-0.2626,-0.2628,-0.2632,-0.2644,-0.2644,-0.2644,-0.2596,-0.2655,-0.2654,-0.2653,-0.2563,-0.256,-0.2558,0,0,0,0,0,0,-0.2569,-0.2568,-0.2569,-0.2573,-0.2574,-0.2601,-0.2597,-0.2603,-0.2602,-0.2625,-0.263,-0.2622,-0.2645,-0.2645,-0.2623,-0.2597,-0.2653,-0.2652,-0.2565,-0.2562,-0.2559,-0.25,0,0,0,0,0,0,-0.2569,-0.2568,-0.2553,-0.2572,-0.2574,-0.2549,-0.2595,-0.2602,-0.2601,-0.2606,-0.2621,-0.2625,-0.2647,-0.2625,-0.2622,-0.2597,-0.2652,-0.2567,-0.2564,-0.256,-0.2504,-0.2495,-0.2488,0,0,0,0,0,-0.2569,-0.2535,-0.2552,-0.2551,-0.2556,-0.2547,-0.2548,-0.2574,-0.2598,-0.2583,-0.2598,-0.2625,-0.2601,-0.2622,-0.262,-0.2594,-0.2569,-0.2565,-0.256,-0.2508,-0.2497,-0.2488,0,0,0,0,0,0,-0.251,-0.2538,-0.2557,-0.2529,-0.2535,-0.2557,-0.2538,-0.2562,-0.2561,-0.2566,-0.2598,-0.26,-0.2574,-0.2582,-0.2605,-0.2554,-0.2589,-0.2584,-0.255,-0.254,-0.2532,-0.253,-0.2651,0,0,0,0,0,-0.2495,-0.2486,-0.251,-0.2483,-0.2485,-0.2511,-0.2508,-0.2528,-0.2536,-0.2538,-0.2552,-0.2557,-0.2551,-0.2546,-0.2542,-0.2506,-0.251,-0.2487,-0.2479,-0.2472,-0.2467,-0.2448,-0.2439,-0.2544,-0.2544,-0.2544,0,0,-0.2461,-0.2475,-0.2468,-0.2471,-0.2479,-0.2469,-0.2513,-0.25,-0.2492,-0.2536,-0.2516,-0.2526,-0.2535,-0.2505,-0.2493,-0.2511,-0.2439,-0.2467,-0.2461,-0.246,-0.2443,-0.2433,-0.2424,-0.2541,-0.2542,-0.2542,0,0,-0.2395,-0.2405,-0.2383,-0.239,-0.2401,-0.2418,-0.2413,-0.2431,-0.2439,-0.242,-0.2453,-0.2444,-0.2432,-0.2437,-0.2437,-0.2373,-0.2397,-0.2371,-0.2327,-0.2308,-0.23,-0.2293,-0.2269,-0.226,-0.2366,-0.2366,-0.2366,0,-0.2351,-0.2338,-0.2368,-0.2353,-0.2354,-0.2394,-0.2372,-0.2376,-0.2385,-0.2384,-0.2404,-0.2391,-0.2399,-0.2372,-0.2356,-0.2355,-0.2349,-0.2369,-0.2299,-0.2292,-0.2286,-0.2263,-0.2254,-0.2362,-0.2363,-0.2363,-0.2363,0,-0.2284,-0.2274,-0.2255,-0.2263,-0.2261,-0.2243,-0.2269,-0.2264,-0.2283,-0.2298,-0.2278,-0.229,-0.2288,-0.2283,-0.2302,-0.2258,-0.2269,-0.2294,-0.2329,-0.2272,-0.2251,-0.2243,-0.2357,-0.2359,-0.236,-0.236,0,0,-0.218,-0.2206,-0.2199,-0.2203,-0.2218,-0.2211,-0.2193,-0.2193,-0.2187,-0.2192,-0.2178,-0.2167,-0.219,-0.2191,-0.2211,-0.2195,-0.2142,-0.2222,-0.2222,-0.2206,-0.2093,-0.2074,-0.2063,-0.2159,-0.2157,-0.2156,-0.2092,0,-0.2117,-0.2091,-0.2117,-0.2084,-0.2075,-0.2114,-0.2099,-0.2106,-0.2119,-0.2113,-0.2127,-0.2119,-0.2151,-0.2151,-0.2137,-0.2151,-0.212,-0.2157,-0.2144,-0.2144,-0.214,-0.2053,-0.2033,-0.1972,-0.2084,-0.2083,-0.2082,0,-0.204,-0.2042,-0.2009,-0.2026,-0.2023,-0.2009,-0.2011,-0.2005,-0.2013,-0.2024,-0.2025,-0.205,-0.2033,-0.2068,-0.2045,-0.207,-0.2066,-0.2073,-0.2071,-0.207,-0.2109,-0.2049,-0.1953,-0.1944,-0.207,-0.2071,-0.2072,0,-0.1967,-0.1962,-0.1941,-0.1943,-0.1963,-0.1952,-0.196,-0.1971,-0.1969,-0.197,-0.1968,-0.1967,-0.1966,-0.1964,-0.1987,-0.2011,-0.1961,-0.1998,-0.1968,-0.1968,-0.1955,-0.1956,-0.1857,-0.1954,-0.1955,-0.1955,-0.1955,0,-0.1894,-0.1871,-0.1908,-0.1895,-0.1872,-0.1902,-0.1877,-0.1889,-0.1898,-0.1887,-0.192,-0.1909,-0.194,-0.1932,-0.195,-0.1928,-0.1927,-0.1935,-0.194,-0.1931,-0.193,-0.1929,-0.1934,-0.1952,-0.1953,-0.1953,-0.1954,0,-0.1808,-0.1832,-0.1812,-0.1833,-0.1837,-0.1819,-0.1836,-0.1824,-0.184,-0.1826,-0.1825,-0.1849,-0.1841,-0.1864,-0.186,-0.1872,-0.1839,-0.1852,-0.1837,-0.184,-0.1809,-0.1811,-0.1705,-0.1692,-0.1798,-0.1797,-0.1796,0,-0.1759,-0.1743,-0.1763,-0.1758,-0.1764,-0.1757,-0.1755,-0.1784,-0.1781,-0.179,-0.1777,-0.1772,-0.177,-0.1755,-0.1772,-0.1769,-0.178,-0.1743,-0.178,-0.1772,-0.1779,-0.1779,-0.1777,-0.1735,-0.1734,-0.1733,-0.1732,0,-0.167,-0.1683,-0.1679,-0.168,-0.1677,-0.1679,-0.1683,-0.1677,-0.1709,-0.1703,-0.1696,-0.1694,-0.169,-0.1685,-0.1685,-0.1692,-0.1717,-0.1721,-0.1714,-0.1705,-0.1697,-0.17,-0.1815,-0.1723,-0.1724,-0.1725,-0.1725,-0.1725,-0.1601,-0.1588,-0.16,-0.1595,-0.1601,-0.1604,-0.1594,-0.1609,-0.1604,-0.1604,-0.1621,-0.161,-0.1619,-0.1622,-0.1626,-0.1618,-0.1635,-0.1624,-0.1622,-0.1618,-0.1613,-0.1698,-0.1618,-0.1618,-0.1619,-0.1619,-0.1619,0,-0.1513,-0.1522,-0.1517,-0.1522,-0.1518,-0.1543,-0.1549,-0.1543,-0.1534,-0.154,-0.1538,-0.1529,-0.1524,-0.154,-0.1537,-0.1527,-0.1538,-0.1525,-0.1526,-0.1527,-0.1598,-0.1605,-0.1516,-0.1516,-0.1516,-0.1516,-0.1516,-0.1516,-0.1466,-0.1446,-0.146,-0.1443,-0.1452,-0.1443,-0.1444,-0.1446,-0.1452,-0.1441,-0.1437,-0.1448,-0.1458,-0.1456,-0.1452,-0.1457,-0.1454,-0.1437,-0.1445,-0.1512,-0.1522,-0.1531,-0.1537,-0.1436,-0.1436,-0.1375,-0.1374,-0.1374]}]]